Terminal Aerodrome Forecast
Issued by NWS Mobile, AL

Home | Current Version | Previous Version | Text Only | Print | Product List | Glossary On
Versions: 1 2 3 4 5 6 7 8 9 10 11 12 13 14 15 16 17 18 19 20 21 22 23 24 25
656
FTUS44 KMOB 100534
TAFPNS
TAF
KPNS 100534Z 1006/1106 29006KT P6SM SKC
     FM100900 32006KT P6SM SKC
     FM101500 31013G20KT P6SM SKC
     FM110000 22004KT P6SM SKC=

USA.gov is the U.S. government's official web portal to all federal, state and local government web resources and services.